| time (UTC) | temp F | wind direction | speed MPH | gust MPH | rain 1hr in | rain 24hr in | rain mn in | humidity % | barometer mb |
| 20260831041910 | 65 | 315 | 0.0 | 1.0 | 0.00 | 0.00 | 0.00 | 66 | 1026.3 |
| 20260831040911 | 65 | 315 | 2.0 | 4.0 | 0.00 | 0.00 | 0.00 | 64 | 1026.2 |
| 20260831035912 | 66 | 270 | 1.0 | 2.0 | 0.00 | 0.00 | 0.00 | 60 | 1026.2 |
| 20260831034911 | 66 | 225 | 1.0 | 2.0 | 0.00 | 0.00 | 0.00 | 57 | 1026.2 |
| 20260831033911 | 66 | 157 | 0.0 | 0.0 | 0.00 | 0.00 | 0.00 | 56 | 1026.2 |
| 20260831033010 | 67 | 225 | 5.0 | 6.0 | 0.00 | 0.00 | 0.00 | 57 | 1026.1 |
| 20260831032010 | 67 | 212 | 4.0 | 8.0 | 0.00 | 0.00 | 0.00 | 55 | 1026.0 |
| 20260831031108 | 67 | 211 | 4.0 | 10.0 | 0.00 | 0.00 | 0.00 | 55 | 1026.0 |
| 20260831030109 | 68 | 218 | 4.0 | 6.0 | 0.00 | 0.00 | 0.00 | 55 | 1025.9 |
| 20260831024109 | 68 | 225 | 7.0 | 9.0 | 0.00 | 0.00 | 0.00 | 51 | 1025.9 |
| 20260831023110 | 69 | 216 | 10.0 | 14.0 | 0.00 | 0.00 | 0.00 | 50 | 1025.9 |
| 20260831022208 | 69 | 225 | 10.0 | 14.0 | 0.00 | 0.00 | 0.00 | 50 | 1026.0 |
| 20260831021209 | 70 | 229 | 10.0 | 14.0 | 0.00 | 0.00 | 0.00 | 48 | 1025.9 |
| 20260831015308 | 70 | 231 | 7.0 | 14.0 | 0.00 | 0.00 | 0.00 | 47 | 1025.9 |
| 20260831013309 | 71 | 227 | 10.0 | 15.0 | 0.00 | 0.00 | 0.00 | 47 | 1026.1 |
| 20260831012408 | 71 | 224 | 8.0 | 14.0 | 0.00 | 0.00 | 0.00 | 45 | 1026.0 |
| 20260831011410 | 71 | 224 | 7.0 | 12.0 | 0.00 | 0.00 | 0.00 | 45 | 1026.0 |
| 20260831010411 | 71 | 225 | 10.0 | 13.0 | 0.00 | 0.00 | 0.00 | 45 | 1026.1 |
| 20260831005509 | 71 | 225 | 12.0 | 14.0 | 0.00 | 0.00 | 0.00 | 43 | 1026.2 |
| 20260831004511 | 71 | 228 | 10.0 | 13.0 | 0.00 | 0.00 | 0.00 | 43 | 1026.3 |
| 20260831003609 | 71 | 230 | 9.0 | 13.0 | 0.00 | 0.00 | 0.00 | 44 | 1026.3 |
| 20260831002708 | 71 | 228 | 9.0 | 15.0 | 0.00 | 0.00 | 0.00 | 43 | 1026.3 |
| 20260831001709 | 71 | 227 | 9.0 | 13.0 | 0.00 | 0.00 | 0.00 | 43 | 1026.4 |
| 20260831000711 | 70 | 226 | 15.0 | 18.0 | 0.00 | 0.00 | 0.00 | 43 | 1026.4 |
| 20260830235810 | 70 | 225 | 14.0 | 19.0 | 0.00 | 0.00 | 0.00 | 43 | 1026.5 |
| 20260830234811 | 71 | 196 | 14.0 | 19.0 | 0.00 | 0.00 | 0.00 | 43 | 1026.6 |
| 20260830233810 | 70 | 223 | 8.0 | 11.0 | 0.00 | 0.00 | 0.00 | 43 | 1026.7 |
| 20260830232908 | 70 | 221 | 8.0 | 13.0 | 0.00 | 0.00 | 0.00 | 43 | 1026.8 |
| 20260830231911 | 70 | 215 | 9.0 | 15.0 | 0.00 | 0.00 | 0.00 | 43 | 1026.8 |
| 20260830231008 | 70 | 205 | 9.0 | 12.0 | 0.00 | 0.00 | 0.00 | 45 | 1027.0 |
| 20260830230010 | 69 | 223 | 9.0 | 13.0 | 0.00 | 0.00 | 0.00 | 44 | 1027.2 |
| 20260830225008 | 69 | 215 | 13.0 | 17.0 | 0.00 | 0.00 | 0.00 | 44 | 1027.2 |
| 20260830224010 | 69 | 218 | 11.0 | 15.0 | 0.00 | 0.00 | 0.00 | 45 | 1027.4 |
| 20260830223008 | 69 | 223 | 14.0 | 20.0 | 0.00 | 0.00 | 0.00 | 45 | 1027.6 |
| 20260830222011 | 68 | 219 | 13.0 | 18.0 | 0.00 | 0.00 | 0.00 | 46 | 1027.8 |
| 20260830220109 | 68 | 211 | 12.0 | 19.0 | 0.00 | 0.00 | 0.00 | 46 | 1027.9 |
| 20260830215209 | 68 | 215 | 10.0 | 13.0 | 0.00 | 0.00 | 0.00 | 46 | 1028.1 |
| 20260830214211 | 68 | 212 | 12.0 | 17.0 | 0.00 | 0.00 | 0.00 | 47 | 1028.5 |
| 20260830213210 | 67 | 211 | 14.0 | 17.0 | 0.00 | 0.00 | 0.00 | 47 | 1028.6 |
| 20260830212211 | 67 | 215 | 13.0 | 16.0 | 0.00 | 0.00 | 0.00 | 48 | 1028.6 |
| 20260830211212 | 67 | 220 | 11.0 | 15.0 | 0.00 | 0.00 | 0.00 | 49 | 1028.9 |
| 20260830210211 | 66 | 214 | 10.0 | 14.0 | 0.00 | 0.00 | 0.00 | 49 | 1029.0 |
| 20260830210110 | 66 | 222 | 8.0 | 11.0 | 0.00 | 0.00 | 0.00 | 50 | 1028.9 |
| 20260830204109 | 65 | 215 | 14.0 | 20.0 | 0.00 | 0.00 | 0.00 | 52 | 1029.1 |
| 20260830203110 | 65 | 212 | 13.0 | 17.0 | 0.00 | 0.00 | 0.00 | 52 | 1029.4 |
| 20260830201110 | 65 | 213 | 13.0 | 17.0 | 0.00 | 0.00 | 0.00 | 51 | 1029.5 |
| 20260830200110 | 65 | 223 | 7.0 | 13.0 | 0.00 | 0.00 | 0.00 | 53 | 1029.7 |
| 20260830195110 | 65 | 212 | 10.0 | 21.0 | 0.00 | 0.00 | 0.00 | 52 | 1029.8 |
| 20260830194110 | 64 | 208 | 9.0 | 14.0 | 0.00 | 0.00 | 0.00 | 53 | 1029.9 |
| 20260830193208 | 64 | 206 | 13.0 | 17.0 | 0.00 | 0.00 | 0.00 | 53 | 1029.9 |
| 20260830192210 | 64 | 206 | 8.0 | 11.0 | 0.00 | 0.00 | 0.00 | 53 | 1030.1 |
| 20260830191210 | 63 | 213 | 11.0 | 17.0 | 0.00 | 0.00 | 0.00 | 55 | 1030.0 |
| 20260830191109 | 63 | 220 | 11.0 | 14.0 | 0.00 | 0.00 | 0.00 | 55 | 1030.2 |
| 20260830190109 | 63 | 215 | 12.0 | 18.0 | 0.00 | 0.00 | 0.00 | 55 | 1030.1 |
| 20260830184110 | 63 | 221 | 9.0 | 13.0 | 0.00 | 0.00 | 0.00 | 55 | 1030.5 |
| 20260830183110 | 62 | 225 | 7.0 | 12.0 | 0.00 | 0.00 | 0.00 | 55 | 1030.5 |
| 20260830182208 | 62 | 221 | 8.0 | 13.0 | 0.00 | 0.00 | 0.00 | 58 | 1030.4 |
| 20260830181210 | 62 | 227 | 9.0 | 13.0 | 0.00 | 0.00 | 0.00 | 60 | 1030.6 |
| 20260830180210 | 61 | 232 | 10.0 | 14.0 | 0.00 | 0.00 | 0.00 | 61 | 1030.6 |
| 20260830175308 | 61 | 215 | 8.0 | 16.0 | 0.00 | 0.00 | 0.00 | 62 | 1030.8 |
| 20260830174310 | 61 | 218 | 11.0 | 15.0 | 0.00 | 0.00 | 0.00 | 64 | 1030.6 |
| 20260830173308 | 60 | 209 | 4.0 | 9.0 | 0.00 | 0.00 | 0.00 | 63 | 1030.8 |
| 20260830172311 | 60 | 219 | 11.0 | 13.0 | 0.00 | 0.00 | 0.00 | 66 | 1030.8 |
| 20260830171312 | 60 | 233 | 10.0 | 14.0 | 0.00 | 0.00 | 0.00 | 65 | 1030.7 |
| 20260830164409 | 59 | 230 | 7.0 | 10.0 | 0.00 | 0.00 | 0.00 | 69 | 1030.9 |
| 20260830164311 | 59 | 225 | 8.0 | 9.0 | 0.00 | 0.00 | 0.00 | 68 | 1030.9 |
| 20260830163408 | 59 | 213 | 5.0 | 9.0 | 0.00 | 0.00 | 0.00 | 70 | 1031.1 |
| 20260830162408 | 58 | 210 | 5.0 | 12.0 | 0.00 | 0.00 | 0.00 | 72 | 1031.2 |
| 20260830161408 | 58 | 225 | 9.0 | 11.0 | 0.00 | 0.00 | 0.00 | 73 | 1031.2 |
| 20260830160507 | 57 | 225 | 6.0 | 8.0 | 0.00 | 0.00 | 0.00 | 74 | 1031.5 |
| 20260830154608 | 57 | 219 | 6.0 | 10.0 | 0.00 | 0.00 | 0.00 | 74 | 1031.5 |
| 20260830153610 | 57 | 202 | 5.0 | 10.0 | 0.00 | 0.00 | 0.00 | 75 | 1031.6 |
| 20260830152708 | 56 | 225 | 7.0 | 10.0 | 0.00 | 0.00 | 0.00 | 76 | 1031.6 |
| 20260830151709 | 56 | 225 | 5.0 | 8.0 | 0.00 | 0.00 | 0.00 | 78 | 1031.7 |
| 20260830150807 | 56 | 202 | 4.0 | 12.0 | 0.00 | 0.00 | 0.00 | 78 | 1031.8 |
| 20260830145808 | 55 | 213 | 3.0 | 4.0 | 0.00 | 0.00 | 0.00 | 80 | 1031.9 |
| 20260830144810 | 54 | 192 | 1.0 | 10.0 | 0.00 | 0.00 | 0.00 | 82 | 1031.8 |
| 20260830143810 | 54 | 90 | 1.0 | 4.0 | 0.00 | 0.00 | 0.00 | 82 | 1031.9 |
| 20260830141909 | 53 | 103 | 2.0 | 5.0 | 0.00 | 0.00 | 0.00 | 85 | 1031.9 |
| 20260830140909 | 52 | 90 | 1.0 | 3.0 | 0.00 | 0.00 | 0.00 | 86 | 1031.8 |
| 20260830140811 | 52 | 90 | 2.0 | 3.0 | 0.00 | 0.00 | 0.00 | 86 | 1031.8 |
| 20260830135811 | 51 | 99 | 3.0 | 6.0 | 0.00 | 0.01 | 0.00 | 86 | 1031.7 |
| 20260830134810 | 51 | 90 | 2.0 | 4.0 | 0.00 | 0.01 | 0.00 | 87 | 1031.5 |
| 20260830132912 | 49 | 50 | 1.0 | 3.0 | 0.00 | 0.01 | 0.00 | 86 | 1031.4 |
| 20260830132009 | 47 | 67 | 2.0 | 3.0 | 0.00 | 0.01 | 0.00 | 85 | 1031.5 |
| 20260830131010 | 46 | 67 | 1.0 | 2.0 | 0.00 | 0.01 | 0.00 | 85 | 1031.3 |
| 20260830125010 | 44 | 67 | 0.0 | 1.0 | 0.00 | 0.01 | 0.00 | 84 | 1031.3 |
| 20260830124009 | 54 | 67 | 1.0 | 2.0 | 0.00 | 0.01 | 0.00 | 83 | 1031.1 |
| 20260830121110 | 57 | 163 | 0.0 | 0.0 | 0.00 | 0.01 | 0.00 | 81 | 1031.2 |
| 20260830120209 | 57 | 270 | 5.0 | 7.0 | 0.00 | 0.01 | 0.00 | 81 | 1031.0 |
| 20260830115211 | 57 | 225 | 3.0 | 5.0 | 0.00 | 0.01 | 0.00 | 81 | 1031.1 |
| 20260830114210 | 57 | 229 | 5.0 | 7.0 | 0.00 | 0.01 | 0.00 | 79 | 1031.0 |
| 20260830113208 | 57 | 230 | 5.0 | 7.0 | 0.00 | 0.01 | 0.00 | 79 | 1030.8 |
| 20260830112210 | 57 | 223 | 9.0 | 12.0 | 0.00 | 0.01 | 0.00 | 80 | 1030.8 |
| 20260830111307 | 57 | 224 | 8.0 | 13.0 | 0.00 | 0.01 | 0.00 | 80 | 1030.9 |
| 20260830105309 | 58 | 226 | 7.0 | 11.0 | 0.00 | 0.01 | 0.00 | 78 | 1030.9 |
| 20260830104310 | 58 | 226 | 9.0 | 14.0 | 0.00 | 0.01 | 0.00 | 78 | 1030.8 |
| 20260830103309 | 58 | 226 | 6.0 | 7.0 | 0.00 | 0.01 | 0.00 | 77 | 1030.7 |
| 20260830102310 | 58 | 223 | 6.0 | 9.0 | 0.00 | 0.01 | 0.00 | 77 | 1030.8 |
| 20260830101408 | 58 | 228 | 8.0 | 11.0 | 0.00 | 0.01 | 0.00 | 78 | 1030.8 |
| 20260830095411 | 58 | 224 | 5.0 | 9.0 | 0.00 | 0.01 | 0.00 | 77 | 1030.7 |
| 20260830093408 | 58 | 226 | 7.0 | 10.0 | 0.00 | 0.01 | 0.00 | 77 | 1030.7 |
| 20260830092508 | 58 | 259 | 4.0 | 6.0 | 0.00 | 0.01 | 0.00 | 77 | 1030.8 |
| 20260830091508 | 58 | 226 | 6.0 | 8.0 | 0.00 | 0.01 | 0.00 | 77 | 1030.7 |
| 20260830090510 | 58 | 241 | 2.0 | 4.0 | 0.00 | 0.01 | 0.00 | 77 | 1030.7 |
| 20260830085609 | 59 | 251 | 4.0 | 6.0 | 0.00 | 0.01 | 0.00 | 76 | 1030.7 |
| 20260830085508 | 59 | 238 | 5.0 | 6.0 | 0.00 | 0.01 | 0.00 | 76 | 1030.7 |
| 20260830084510 | 59 | 238 | 6.0 | 9.0 | 0.00 | 0.01 | 0.00 | 74 | 1030.7 |
| 20260830083510 | 59 | 227 | 5.0 | 6.0 | 0.00 | 0.01 | 0.00 | 73 | 1030.6 |
| 20260830082510 | 59 | 221 | 6.0 | 9.0 | 0.00 | 0.01 | 0.00 | 72 | 1030.8 |
| 20260830081508 | 59 | 211 | 3.0 | 7.0 | 0.00 | 0.01 | 0.00 | 72 | 1030.8 |
| 20260830080512 | 59 | 217 | 4.0 | 11.0 | 0.00 | 0.01 | 0.00 | 72 | 1030.8 |
| 20260830074609 | 59 | 228 | 4.0 | 6.0 | 0.00 | 0.01 | 0.00 | 71 | 1030.8 |
| 20260830072609 | 59 | 221 | 5.0 | 7.0 | 0.00 | 0.01 | 0.00 | 70 | 1030.7 |
| 20260830071610 | 60 | 209 | 3.0 | 6.0 | 0.00 | 0.01 | 0.00 | 70 | 1030.7 |
| 20260830070707 | 60 | 202 | 3.0 | 8.0 | 0.00 | 0.01 | 0.00 | 68 | 1030.7 |
| 20260830065715 | 60 | 232 | 4.0 | 6.0 | 0.00 | 0.01 | 0.01 | 68 | 1030.8 |
| 20260830064714 | 60 | 215 | 3.0 | 7.0 | 0.00 | 0.01 | 0.01 | 68 | 1030.7 |
| 20260830063715 | 60 | 236 | 10.0 | 13.0 | 0.00 | 0.01 | 0.01 | 66 | 1030.7 |
| 20260830062718 | 61 | 235 | 7.0 | 10.0 | 0.00 | 0.01 | 0.01 | 65 | 1030.5 |
| 20260830061716 | 61 | 216 | 7.0 | 12.0 | 0.00 | 0.01 | 0.01 | 65 | 1030.4 |
| 20260830060813 | 61 | 218 | 6.0 | 9.0 | 0.00 | 0.01 | 0.01 | 64 | 1030.6 |
| 20260830055815 | 62 | 223 | 4.0 | 7.0 | 0.00 | 0.01 | 0.01 | 63 | 1030.4 |
| 20260830054912 | 62 | 229 | 7.0 | 11.0 | 0.00 | 0.01 | 0.01 | 61 | 1030.5 |
| 20260830053915 | 62 | 221 | 6.0 | 9.0 | 0.00 | 0.01 | 0.01 | 61 | 1030.5 |
| 20260830052915 | 63 | 236 | 6.0 | 8.0 | 0.00 | 0.01 | 0.01 | 61 | 1030.5 |
| 20260830051914 | 63 | 246 | 9.0 | 11.0 | 0.00 | 0.01 | 0.01 | 60 | 1030.4 |
| 20260830050014 | 63 | 226 | 7.0 | 10.0 | 0.00 | 0.01 | 0.01 | 60 | 1030.3 |
| 20260830045016 | 64 | 206 | 2.0 | 5.0 | 0.00 | 0.01 | 0.01 | 59 | 1030.2 |
| 20260830044016 | 64 | 226 | 9.0 | 13.0 | 0.00 | 0.01 | 0.01 | 58 | 1030.1 |
| 20260830043113 | 64 | 225 | 7.0 | 10.0 | 0.00 | 0.01 | 0.01 | 58 | 1030.1 |